TimePDT,TemperatureF,Dew PointF,Humidity,Sea Level PressureIn,VisibilityMPH,Wind Direction,Wind SpeedMPH,Gust SpeedMPH,PrecipitationIn,Events,Conditions,WindDirDegrees,DateUTC
12:53 AM,59.0,46.4,63,29.96,10.0,West,18.4,28.8,N/A,,Clear,270,2011-04-19 07:53:00
1:53 AM,57.9,46.9,67,29.89,10.0,West,15.0,-,N/A,,Clear,270,2011-04-19 08:53:00
2:53 AM,57.0,46.0,67,29.89,10.0,WSW,5.8,-,N/A,,Clear,250,2011-04-19 09:53:00
3:53 AM,55.0,46.0,72,29.90,10.0,West,9.2,-,N/A,,Clear,260,2011-04-19 10:53:00
4:53 AM,54.0,46.0,75,29.89,10.0,West,8.1,-,N/A,,Clear,260,2011-04-19 11:53:00
5:53 AM,55.0,46.0,72,29.90,10.0,West,9.2,-,N/A,,Clear,270,2011-04-19 12:53:00
6:53 AM,55.9,46.0,69,29.92,10.0,WSW,12.7,-,N/A,,Clear,240,2011-04-19 13:53:00
7:53 AM,60.1,45.0,57,29.94,10.0,West,16.1,-,N/A,,Clear,280,2011-04-19 14:53:00
8:53 AM,63.0,45.0,52,29.94,10.0,West,13.8,-,N/A,,Clear,270,2011-04-19 15:53:00
9:53 AM,66.0,44.1,45,29.94,10.0,WNW,17.3,25.3,N/A,,Clear,290,2011-04-19 16:53:00
10:53 AM,66.9,43.0,42,29.93,10.0,WNW,16.1,21.9,N/A,,Clear,290,2011-04-19 17:53:00
11:53 AM,70.0,39.9,33,29.91,10.0,West,17.3,24.2,N/A,,Clear,260,2011-04-19 18:53:00
12:53 PM,75.0,42.1,31,29.87,10.0,West,15.0,-,N/A,,Clear,260,2011-04-19 19:53:00
1:00 PM,73.4,42.8,33,29.93,10.0,SW,12.7,18.4,N/A,,Clear,220,2011-04-19 20:00:00
1:53 PM,73.9,45.0,35,29.87,10.0,WSW,17.3,24.2,N/A,,Clear,240,2011-04-19 20:53:00
2:53 PM,73.9,48.0,40,29.86,10.0,WSW,16.1,24.2,N/A,,Clear,240,2011-04-19 21:53:00
3:53 PM,73.0,48.9,42,29.85,10.0,SW,17.3,-,N/A,,Clear,230,2011-04-19 22:53:00
4:53 PM,71.1,48.9,45,29.86,10.0,WSW,18.4,-,N/A,,Clear,240,2011-04-19 23:53:00
5:53 PM,68.0,48.9,50,29.86,10.0,WSW,19.6,24.2,N/A,,Clear,250,2011-04-20 00:53:00
6:53 PM,63.0,50.0,63,29.87,10.0,SW,13.8,-,N/A,,Clear,230,2011-04-20 01:53:00
7:53 PM,60.1,50.0,69,29.88,10.0,SW,16.1,-,N/A,,Clear,230,2011-04-20 02:53:00
8:53 PM,57.9,50.0,75,29.89,10.0,SW,11.5,-,N/A,,Clear,220,2011-04-20 03:53:00
9:53 PM,57.0,50.0,77,29.91,10.0,SW,17.3,23.0,N/A,,Clear,230,2011-04-20 04:53:00
10:53 PM,55.0,50.0,83,29.92,10.0,SSW,6.9,-,N/A,,Clear,210,2011-04-20 05:53:00
11:53 PM,55.0,48.9,80,29.92,9.0,SSW,8.1,-,N/A,,Clear,210,2011-04-20 06:53:00